H1 CPF 2 NER 2024 5 25 9 146 01 glonass128 H2 1106401 9128 37867 2024 5 25 0 0 0 2024 5 28 23 45 0 900 1 1 0 0 0 1 H9 10 0 60455 0.00000 0 20746393.069 7247182.411 12954510.780 10 0 60455 900.00000 0 22008392.945 7914555.023 10166709.765 10 0 60455 1800.00000 0 23006773.756 8313360.721 7181283.885 10 0 60455 2700.00000 0 23692771.500 8475263.116 4056140.220 10 0 60455 3600.00000 0 24027131.205 8441303.541 852014.948 10 0 60455 4500.00000 0 23981833.150 8259928.720 -2368710.301 10 0 60455 5400.00000 0 23541368.149 7984704.245 -5543233.083 10 0 60455 6300.00000 0 22703504.876 7671811.141 -8609570.787 10 0 60455 7200.00000 0 21479513.739 7377432.969 -11507791.269 10 0 60455 8100.00000 0 19893835.175 7155146.295 -14181207.260 10 0 60455 9000.00000 0 17983204.304 7053427.812 -16577508.826 10 0 60455 9900.00000 0 15795267.679 7113386.723 -18649809.295 10 0 60455 10800.00000 0 13386750.038 7366821.346 -20357582.040 10 0 60455 11700.00000 0 10821248.656 7834684.866 -21667468.027 10 0 60455 12600.00000 0 8166749.060 8526027.219 -22553937.039 10 0 60455 13500.00000 0 5492967.850 9437459.186 -22999788.977 10 0 60455 14400.00000 0 2868635.467 10553161.958 -22996485.340 10 0 60455 15300.00000 0 358834.074 11845441.532 -22544304.883 10 0 60455 16200.00000 0 -1977497.315 13275803.749 -21652321.345 10 0 60455 17100.00000 0 -4089786.015 14796503.299 -20338205.040 10 0 60455 18000.00000 0 -5937684.948 16352499.787 -18627853.804 10 0 60455 18900.00000 0 -7492491.928 17883736.790 -16554862.289 10 0 60455 19800.00000 0 -8738072.049 19327646.460 -14159841.830 10 0 60455 20700.00000 0 -9671247.727 20621773.042 -11489605.963 10 0 60455 21600.00000 0 -10301643.711 21706404.312 -8596239.180 10 0 60455 22500.00000 0 -10650997.411 22527100.177 -5536068.519 10 0 60455 23400.00000 0 -10751967.266 23037012.713 -2368559.189 10 0 60455 24300.00000 0 -10646492.620 23198901.302 844843.472 10 0 60455 25200.00000 0 -10383776.864 22986759.896 4041902.911 10 0 60455 26100.00000 0 -10017980.630 22386990.026 7160788.130 10 0 60455 27000.00000 0 -9605723.206 21399072.446 10141255.807 10 0 60455 27900.00000 0 -9203497.409 20035711.090 12925796.005 10 0 60455 28800.00000 0 -8865106.004 18322444.806 15460720.894 10 0 60455 29700.00000 0 -8639226.080 16296743.909 17697177.382 10 0 60455 30600.00000 0 -8567202.012 14006629.270 19592066.320 10 0 60455 31500.00000 0 -8681157.817 11508870.697 21108852.711 10 0 60455 32400.00000 0 -9002506.472 8866837.917 22218253.455 10 0 60455 33300.00000 0 -9540917.575 6148091.087 22898791.150 10 0 60455 34200.00000 0 -10293786.212 3421808.001 23137204.552 10 0 60455 35100.00000 0 -11246225.754 756151.595 22928708.500 10 0 60455 36000.00000 0 -12371586.323 -1784316.248 22277098.221 10 0 60455 36900.00000 0 -13632479.447 -4141070.020 21194695.217 10 0 60455 37800.00000 0 -14982268.866 -6263806.282 19702134.300 10 0 60455 38700.00000 0 -16366968.295 -8112290.339 17827993.757 10 0 60455 39600.00000 0 -17727469.810 -9657787.694 15608273.306 10 0 60455 40500.00000 0 -19002012.226 -10884020.391 13085727.185 10 0 60455 41400.00000 0 -20128788.042 -11787607.360 10309062.572 10 0 60455 42300.00000 0 -21048580.555 -12377968.814 7332016.493 10 0 60455 43200.00000 0 -21707320.327 -12676696.994 4212327.194 10 0 60455 44100.00000 0 -22058452.348 -12716418.022 1010618.694 10 0 60455 45000.00000 0 -22065012.083 -12539191.478 -2210780.181 10 0 60455 45900.00000 0 -21701320.040 -12194514.479 -5389058.978 10 0 60455 46800.00000 0 -20954220.098 -11737014.688 -8462166.059 10 0 60455 47700.00000 0 -19823805.927 -11223930.704 -11370040.314 10 0 60455 48600.00000 0 -18323601.713 -10712488.189 -14055807.958 10 0 60455 49500.00000 0 -16480186.940 -10257285.143 -16466918.590 10 0 60455 50400.00000 0 -14332279.202 -9907799.784 -18556195.900 10 0 60455 51300.00000 0 -11929312.675 -9706129.366 -20282780.275 10 0 60455 52200.00000 0 -9329571.893 -9685058.233 -21612943.094 10 0 60455 53100.00000 0 -6597959.838 -9866539.043 -22520755.464 10 0 60455 54000.00000 0 -3803495.123 -10260652.816 -22988597.633 10 0 60455 54900.00000 0 -1016644.495 -10865092.528 -23007499.011 10 0 60455 55800.00000 0 1693396.269 -11665191.928 -22577302.571 10 0 60455 56700.00000 0 4261358.322 -12634497.582 -21706651.381 10 0 60455 57600.00000 0 6628381.094 -13735858.576 -20412798.802 10 0 60455 58500.00000 0 8744215.510 -14922986.122 -18721247.723 10 0 60455 59400.00000 0 10569058.173 -16142415.312 -16665227.608 10 0 60455 60300.00000 0 12074941.747 -17335784.413 -14285021.439 10 0 60455 61200.00000 0 13246626.106 -18442333.977 -11627157.520 10 0 60455 62100.00000 0 14081956.266 -19401519.261 -8743483.581 10 0 60455 63000.00000 0 14591675.804 -20155625.310 -5690142.711 10 0 60455 63900.00000 0 14798707.372 -20652274.591 -2526472.248 10 0 60455 64800.00000 0 14736934.120 -20846722.286 686152.125 10 0 60455 65700.00000 0 14449536.326 -20703843.924 3885504.303 10 0 60455 66600.00000 0 13986955.580 -20199733.410 7009704.683 10 0 60455 67500.00000 0 13404573.685 -19322846.173 9998403.555 10 0 60455 68400.00000 0 12760204.464 -18074641.267 12793929.149 10 0 60455 69300.00000 0 12111503.648 -16469697.002 15342379.682 10 0 60455 70200.00000 0 11513404.581 -14535296.262 17594640.246 10 0 60455 71100.00000 0 11015685.768 -12310499.042 19507307.058 10 0 60455 72000.00000 0 10660770.390 -9844740.333 21043503.457 10 0 60455 72900.00000 0 10481848.064 -7196010.309 22173574.016 10 0 60455 73800.00000 0 10501395.910 -4428690.223 22875645.219 10 0 60455 74700.00000 0 10730159.778 -1611131.121 23136043.205 10 0 60455 75600.00000 0 11166637.976 1186927.422 22949561.244 10 0 60455 76500.00000 0 11797089.693 3896994.808 22319571.787 10 0 60455 77400.00000 0 12596069.226 6454416.871 21257980.161 10 0 60455 78300.00000 0 13527465.876 8800808.597 19785019.371 10 0 60455 79200.00000 0 14546008.674 10886233.042 17928887.865 10 0 60455 80100.00000 0 15599175.817 12671036.882 15725234.785 10 0 60455 81000.00000 0 16629431.548 14127266.393 13216499.930 10 0 60455 81900.00000 0 17576698.826 15239604.085 10451118.486 10 0 60455 82800.00000 0 18380965.387 16005785.523 7482603.528 10 0 60455 83700.00000 0 18984914.044 16436477.098 4368522.154 10 0 60455 84600.00000 0 19336465.837 16554618.043 1169383.829 10 0 60455 85500.00000 0 19391127.178 16394252.676 -2052537.883 10 0 60456 0.00000 0 19114039.445 15998900.954 -5234426.683 10 0 60456 900.00000 0 18481641.113 15419535.359 -8314164.848 10 0 60456 1800.00000 0 17482869.190 14712250.515 -11231564.254 10 0 60456 2700.00000 0 16119845.315 13935724.507 -13929566.626 10 0 60456 3600.00000 0 14408014.722 13148581.665 -16355382.900 10 0 60456 4500.00000 0 12375729.720 12406770.603 -18461548.685 10 0 60456 5400.00000 0 10063293.560 11761071.116 -20206872.705 10 0 60456 6300.00000 0 7521504.140 11254837.904 -21557257.864 10 0 60456 7200.00000 0 4809758.808 10922078.783 -22486377.502 10 0 60456 8100.00000 0 1993800.481 10785950.181 -22976192.923 10 0 60456 9000.00000 0 -856799.322 10857734.347 -23017301.910 10 0 60456 9900.00000 0 -3671313.798 11136341.490 -22609111.843 10 0 60456 10800.00000 0 -6380577.563 11608357.113 -21759834.951 10 0 60456 11700.00000 0 -8919632.366 12248631.050 -20486307.106 10 0 60456 12600.00000 0 -11230191.055 13021381.417 -18813635.296 10 0 60456 13500.00000 0 -13262817.404 13881764.616 -16774682.449 10 0 60456 14400.00000 0 -14978732.107 14777842.842 -14409401.504 10 0 60456 15300.00000 0 -16351171.554 15652863.984 -11764033.544 10 0 60456 16200.00000 0 -17366245.449 16447755.963 -8890187.335 10 0 60456 17100.00000 0 -18023260.701 17103729.151 -5843819.668 10 0 60456 18000.00000 0 -18334501.641 17564876.552 -2684137.563 10 0 60456 18900.00000 0 -18324479.404 17780662.279 527555.454 10 0 60456 19800.00000 0 -18028685.293 17708194.247 3729046.261 10 0 60456 20700.00000 0 -17491903.214 17314186.656 6858409.206 10 0 60456 21600.00000 0 -16766154.077 16576531.338 9855190.737 10 0 60456 22500.00000 0 -15908359.578 15485413.620 12661559.773 10 0 60456 23400.00000 0 -14977823.654 14043927.427 15223403.055 10 0 60456 24300.00000 0 -14033636.575 12268164.970 17491346.228 10 0 60456 25200.00000 0 -13132109.146 10186777.738 19421683.118 10 0 60456 26100.00000 0 -12324342.618 7840026.859 20977197.438 10 0 60456 27000.00000 0 -11654033.958 5278361.197 22127863.245 10 0 60456 27900.00000 0 -11155606.268 2560580.421 22851412.447 10 0 60456 28800.00000 0 -10852740.923 -248343.350 23133759.785 10 0 60456 29700.00000 0 -10757371.785 -3079698.050 22969277.828 10 0 60456 30600.00000 0 -10869183.321 -5863620.879 22360916.739 10 0 60456 31500.00000 0 -11175634.267 -8531740.132 21320165.754 10 0 60456 32400.00000 0 -11652507.338 -11019763.066 19866855.717 10 0 60456 33300.00000 0 -12264964.071 -13269904.725 18028804.434 10 0 60456 34200.00000 0 -12969063.175 -15233058.266 15841309.230 10 0 60456 35100.00000 0 -13713681.286 -16870617.077 13346493.791 10 0 60456 36000.00000 0 -14442757.859 -18155872.387 10592519.232 10 0 60456 36900.00000 0 -15097771.531 -19074926.815 7632672.249 10 0 60456 37800.00000 0 -15620344.657 -19627083.948 4524346.044 10 0 60456 38700.00000 0 -15954866.107 -19824695.554 1327932.523 10 0 60456 39600.00000 0 -16051020.517 -19692470.887 -1894353.231 10 0 60456 40500.00000 0 -15866115.040 -19266275.486 -5079693.036 10 0 60456 41400.00000 0 -15367102.389 -18591469.073 -8165905.458 10 0 60456 42300.00000 0 -14532211.241 -17720852.411 -11092679.521 10 0 60456 43200.00000 0 -13352111.565 -16712310.432 -13802776.038 10 0 60456 44100.00000 0 -11830562.213 -15626252.559 -16243170.738 10 0 60456 45000.00000 0 -9984510.550 -14522960.439 -18366114.369 10 0 60456 45900.00000 0 -7843637.702 -13459957.537 -20130086.851 10 0 60456 46800.00000 0 -5449367.143 -12489514.165 -21500624.974 10 0 60456 47700.00000 0 -2853377.818 -11656395.618 -22451006.095 10 0 60456 48600.00000 0 -115684.433 -10995950.165 -22962773.703 10 0 60456 49500.00000 0 2697633.772 -10532618.663 -23026094.432 10 0 60456 50400.00000 0 5516959.470 -10278928.856 -22639939.897 10 0 60456 51300.00000 0 8271811.945 -10235016.122 -21812090.741 10 0 60456 52200.00000 0 10893557.212 -10388689.443 -20558964.052 10 0 60456 53100.00000 0 13318039.622 -10716037.747 -18905269.155 10 0 60456 54000.00000 0 15488025.054 -11182548.531 -16883500.244 10 0 60456 54900.00000 0 17355354.367 -11744688.907 -14533277.591 10 0 60456 55800.00000 0 18882718.609 -12351879.731 -11900552.054 10 0 60456 56700.00000 0 20044984.071 -12948777.212 -9036690.075 10 0 60456 57600.00000 0 20830014.611 -13477763.898 -5997458.487 10 0 60456 58500.00000 0 21238960.122 -13881542.735 -2841930.132 10 0 60456 59400.00000 0 21286002.518 -14105724.319 368667.580 10 0 60456 60300.00000 0 20997573.237 -14101298.433 3572138.424 10 0 60456 61200.00000 0 20411078.044 -13826886.590 6706514.419 10 0 60456 62100.00000 0 19573184.938 -13250681.995 9711241.596 10 0 60456 63000.00000 0 18537748.520 -12351996.911 12528332.560 10 0 60456 63900.00000 0 17363458.452 -11122353.929 15103465.077 10 0 60456 64800.00000 0 16111310.278 -9566076.646 17387007.320 10 0 60456 65700.00000 0 14842003.393 -7700355.727 19334952.147 10 0 60456 66600.00000 0 13613373.311 -5554787.620 20909744.550 10 0 60456 67500.00000 0 12477963.433 -3170404.360 22080988.464 10 0 60456 68400.00000 0 11480835.505 -598233.175 22826021.156 10 0 60456 69300.00000 0 10657708.152 2102556.602 23130345.466 10 0 60456 70200.00000 0 10033499.594 4866845.407 22987912.385 10 0 60456 71100.00000 0 9621334.427 7626006.558 22401248.561 10 0 60456 72000.00000 0 9422055.849 10310502.695 21381425.606 10 0 60456 72900.00000 0 9424264.417 12852531.052 19947870.429 10 0 60456 73800.00000 0 9604883.157 15188610.483 18128018.208 10 0 60456 74700.00000 0 9930227.420 17262004.610 15956812.280 10 0 60456 75600.00000 0 10357536.901 19024881.294 13476057.906 10 0 60456 76500.00000 0 10836907.790 20440118.467 10733639.683 10 0 60456 77400.00000 0 11313545.727 21482679.985 7782615.354 10 0 60456 78300.00000 0 11730245.890 22140502.364 4680201.565 10 0 60456 79200.00000 0 12029996.036 22414853.116 1486669.925 10 0 60456 80100.00000 0 12158591.917 22320143.379 -1735825.716 10 0 60456 81000.00000 0 12067152.921 21883200.668 -4924467.707 10 0 60456 81900.00000 0 11714429.037 21142030.725 -8017014.058 10 0 60456 82800.00000 0 11068798.381 20144119.822 -10953033.028 10 0 60456 83700.00000 0 10109867.300 18944349.036 -13675106.641 10 0 60456 84600.00000 0 8829601.821 17602609.323 -16129977.265 10 0 60456 85500.00000 0 7232939.431 16181219.582 -18269612.339 10 0 60457 0.00000 0 5337852.852 14742258.871 -20052164.110 10 0 60457 900.00000 0 3174860.126 13344926.845 -21442804.601 10 0 60457 1800.00000 0 786003.152 12043047.940 -22414415.788 10 0 60457 2700.00000 0 -1776666.034 10882823.799 -22948123.893 10 0 60457 3600.00000 0 -4453024.815 9900931.823 -23033664.673 10 0 60457 4500.00000 0 -7177164.062 9123049.646 -22669573.963 10 0 60457 5400.00000 0 -9879919.735 8562867.350 -21863200.436 10 0 60457 6300.00000 0 -12491544.906 8221627.707 -20630541.654 10 0 60457 7200.00000 0 -14944409.495 8088211.763 -18995908.130 10 0 60457 8100.00000 0 -17175614.447 8139763.507 -16991423.810 10 0 60457 9000.00000 0 -19129411.257 8342824.335 -14656374.484 10 0 60457 9900.00000 0 -20759326.596 8654926.422 -12036418.728 10 0 60457 10800.00000 0 -22029904.844 9026574.946 -9182678.450 10 0 60457 11700.00000 0 -22917997.976 9403533.098 -6150728.222 10 0 60457 12600.00000 0 -23413551.598 9729311.613 -2999504.355 10 0 60457 13500.00000 0 -23519857.394 9947756.632 209844.223 10 0 60457 14400.00000 0 -23253264.605 10005626.386 3415140.573 10 0 60457 15300.00000 0 -22642365.624 9855048.347 6554376.798 10 0 60457 16200.00000 0 -21726692.348 9455754.265 9566900.922 10 0 60457 17100.00000 0 -20554979.744 8777000.327 12394571.658 10 0 60457 18000.00000 0 -19183070.378 7799093.183 14982860.180 10 0 60457 18900.00000 0 -17671547.669 6514459.149 17281879.488 10 0 60457 19800.00000 0 -16083196.097 4928212.730 19247323.625 10 0 60457 20700.00000 0 -14480392.964 3058201.065 20841300.806 10 0 60457 21600.00000 0 -12922538.512 934522.033 22033046.535 10 0 60457 22500.00000 0 -11463629.238 -1401465.179 22799504.817 10 0 60457 23400.00000 0 -10150073.232 -3898597.921 23125767.655 10 0 60457 24300.00000 0 -9018836.497 -6497778.521 23005365.176 10 0 60457 25200.00000 0 -8095995.965 -9134179.018 22440400.888 10 0 60457 26100.00000 0 -7395758.735 -11739694.135 21441528.820 10 0 60457 27000.00000 0 -6919988.426 -14245544.049 20027771.626 10 0 60457 27900.00000 0 -6658259.194 -16584921.898 18226181.193 10 0 60457 28800.00000 0 -6588436.621 -18695578.214 16071345.870 10 0 60457 29700.00000 0 -6677763.046 -20522236.187 13604751.139 10 0 60457 30600.00000 0 -6884403.859 -22018737.491 10874003.421 10 0 60457 31500.00000 0 -7159391.723 -23149828.505 7931929.543 10 0 60457 32400.00000 0 -7448888.300 -23892510.759 4835567.366 10 0 60457 33300.00000 0 -7696668.879 -24236896.936 1645065.736 10 0 60457 34200.00000 0 -7846724.797 -24186534.046 -1577485.417 10 0 60457 35100.00000 0 -7845872.517 -23758177.728 -4769271.868 10 0 60457 36000.00000 0 -7646256.903 -22981025.050 -7867994.140 10 0 60457 36900.00000 0 -7207639.936 -21895436.584 -10813102.945 10 0 60457 37800.00000 0 -6499374.651 -20551200.905 -13547004.834 10 0 60457 38700.00000 0 -5501977.254 -19005414.782 -16016212.115 10 0 60457 39600.00000 0 -4208227.522 -17320069.449 -18172412.124 10 0 60457 40500.00000 0 -2623748.019 -15559446.292 -19973432.688 10 0 60457 41400.00000 0 -767035.330 -13787433.763 -21384083.045 10 0 60457 42300.00000 0 1331059.554 -12064880.662 -22376852.325 10 0 60457 43200.00000 0 3628380.553 -10447099.160 -22932451.146 10 0 60457 44100.00000 0 6073001.403 -8981624.050 -23040185.522 10 0 60457 45000.00000 0 8605181.036 -7706323.224 -22698156.084 10 0 60457 45900.00000 0 11159656.356 -6647938.654 -21913279.622 10 0 60457 46800.00000 0 13668175.172 -5821118.183 -20701133.739 10 0 60457 47700.00000 0 16062162.009 -5227976.944 -19085629.262 10 0 60457 48600.00000 0 18275404.456 -4858204.220 -17098518.529 10 0 60457 49500.00000 0 20246647.303 -4689708.147 -14778751.021 10 0 60457 50400.00000 0 21921986.257 -4689767.772 -12171690.720 10 0 60457 51300.00000 0 23256962.089 -4816640.591 -9328212.200 10 0 60457 52200.00000 0 24218269.306 -5021554.814 -6303694.543 10 0 60457 53100.00000 0 24785010.069 -5250999.831 -3156933.933 10 0 60457 54000.00000 0 24949443.627 -5449216.481 51003.042 10 0 60457 54900.00000 0 24717202.784 -5560781.062 3257962.690 10 0 60457 55800.00000 0 24106971.217 -5533173.881 6401901.127 10 0 60457 56700.00000 0 23149637.743 -5319224.575 9422072.128 10 0 60457 57600.00000 0 21886964.940 -4879332.249 12260183.967 10 0 60457 58500.00000 0 20369829.136 -4183368.394 14861504.292 10 0 60457 59400.00000 0 18656105.753 -3212184.072 17175893.542 10 0 60457 60300.00000 0 16808287.899 -1958659.321 19158749.086 10 0 60457 61200.00000 0 14890936.307 -428251.585 20771844.021 10 0 60457 62100.00000 0 12968065.020 1360979.728 21984046.592 10 0 60457 63000.00000 0 11100569.316 3378874.389 22771908.257 10 0 60457 63900.00000 0 9343800.441 5584178.894 23120110.429 10 0 60457 64800.00000 0 7745385.612 7926020.914 23021762.174 10 0 60457 65700.00000 0 6343381.981 10345792.393 22478543.220 10 0 60457 66600.00000 0 5164839.963 12779366.382 21500688.939 10 0 60457 67500.00000 0 4224835.098 15159558.994 20106816.276 10 0 60457 68400.00000 0 3526008.940 17418737.365 18323592.014 10 0 60457 69300.00000 0 3058639.010 19491467.732 16185247.378 10 0 60457 70200.00000 0 2801236.356 21317095.229 13732945.690 10 0 60457 71100.00000 0 2721647.451 22842148.640 11014012.564 10 0 60457 72000.00000 0 2778616.037 24022469.466 8081041.115 10 0 60457 72900.00000 0 2923740.778 24824975.060 4990887.465 10 0 60457 73800.00000 0 3103747.257 25228979.950 1803574.641 10 0 60457 74700.00000 0 3262978.661 25227017.363 -1418874.438 10 0 60457 75600.00000 0 3345999.252 24825123.706 -4613652.030 10 0 60457 76500.00000 0 3300198.874 24042571.415 -7718404.104 10 0 60457 77400.00000 0 3078285.856 22911059.323 -10672466.561 10 0 60457 78300.00000 0 2640559.716 21473393.185 -13418072.932 10 0 60457 79200.00000 0 1956864.073 19781711.412 -15901507.618 10 0 60457 80100.00000 0 1008133.693 17895331.039 -18074179.664 10 0 60457 81000.00000 0 -212532.907 15878305.747 -19893593.836 10 0 60457 81900.00000 0 -1699323.252 13796800.358 -21324198.094 10 0 60457 82800.00000 0 -3433708.217 11716394.241 -22338089.433 10 0 60457 83700.00000 0 -5384988.107 9699428.920 -22915563.468 10 0 60457 84600.00000 0 -7511364.832 7802512.930 -23045496.753 10 0 60457 85500.00000 0 -9761494.704 6074289.717 -22725554.673 10 0 60458 0.00000 0 -12076455.506 4553562.629 -21962221.786 10 0 60458 900.00000 0 -14392045.335 3267854.204 -20770654.792 10 0 60458 1800.00000 0 -16641312.362 2232460.636 -19174363.654 10 0 60458 2700.00000 0 -18757212.514 1450035.985 -17204727.533 10 0 60458 3600.00000 0 -20675279.871 910722.586 -14900357.704 10 0 60458 4500.00000 0 -22336198.916 592817.873 -12306321.434 10 0 60458 5400.00000 0 -23688171.121 463946.095 -9473243.680 10 0 60458 6300.00000 0 -24688977.844 482682.095 -6456305.646 10 0 60458 7200.00000 0 -25307654.811 600555.745 -3314160.947 10 0 60458 8100.00000 0 -25525710.274 764350.077 -107791.357 10 0 60458 9000.00000 0 -25337838.381 918594.574 3100675.193 10 0 60458 9900.00000 0 -24752100.518 1008147.686 6249161.368 10 0 60458 10800.00000 0 -23789569.522 980759.676 9276829.245 10 0 60458 11700.00000 0 -22483453.767 789508.546 12125239.203 10 0 60458 12600.00000 0 -20877739.209 395007.671 14739457.845 10 0 60458 13500.00000 0 -19025406.827 -232706.212 17069095.420 10 0 60458 14400.00000 0 -16986299.678 -1112682.538 19069254.794 10 0 60458 15300.00000 0 -14824727.494 -2252025.354 20701375.852 10 0 60458 16200.00000 0 -12606906.810 -3645363.338 21933961.180 10 0 60458 17100.00000 0 -10398340.785 -5274843.751 22743170.914 10 0 60458 18000.00000 0 -8261245.057 -7110651.667 23113276.746 10 0 60458 18900.00000 0 -6252123.862 -9112034.765 23036967.174 10 0 60458 19800.00000 0 -4419594.729 -11228793.639 22515498.298 10 0 60458 20700.00000 0 -2802550.201 -13403178.790 21558686.673 10 0 60458 21600.00000 0 -1428731.790 -15572118.774 20184743.062 10 0 60458 22500.00000 0 -313775.042 -17669690.095 18419948.385 10 0 60458 23400.00000 0 539234.133 -19629728.904 16298175.707 10 0 60458 24300.00000 0 1139672.349 -21388477.831 13860264.861 10 0 60458 25200.00000 0 1508762.999 -22887158.792 11153259.064 10 0 60458 26100.00000 0 1678455.991 -24074364.425 8229515.861 10 0 60458 27000.00000 0 1689848.388 -24908167.260 5145707.542 10 0 60458 27900.00000 0 1591211.180 -25357856.422 1961729.024 10 0 60458 28800.00000 0 1435704.808 -25405226.456 -1260466.269 10 0 60458 29700.00000 0 1278880.089 -25045361.238 -4458079.714 10 0 60458 30600.00000 0 1176071.351 -24286877.013 -7568705.508 10 0 60458 31500.00000 0 1179794.014 -23151611.664 -10531567.635 10 0 60458 32400.00000 0 1337259.501 -21673771.208 -13288729.581 10 0 60458 33300.00000 0 1688115.814 -19898568.179 -15786250.818 10 0 60458 34200.00000 0 2262512.770 -17880408.826 -17975265.013 10 0 60458 35100.00000 0 3079576.937 -15680705.862 -19812956.605 10 0 60458 36000.00000 0 4146363.577 -13365409.931 -21263414.738 10 0 60458 36900.00000 0 5457332.015 -11002365.200 -22298346.391 10 0 60458 37800.00000 0 6994367.995 -8658601.927 -22897633.874 10 0 60458 38700.00000 0 8727352.719 -6397681.306 -23049725.538 10 0 60458 39600.00000 0 10615254.404 -4277205.196 -22751852.337 10 0 60458 40500.00000 0 12607695.718 -2346595.695 -22010066.823 10 0 60458 41400.00000 0 14646929.978 -645237.320 -20839105.043 10 0 60458 42300.00000 0 16670141.672 798941.519 -19262075.596 10 0 60458 43200.00000 0 18611973.335 1970390.354 -17309983.637 10 0 60458 44100.00000 0 20407171.593 2866325.996 -15021100.998 10 0 60458 45000.00000 0 21993240.627 3496576.428 -12440196.525 10 0 60458 45900.00000 0 23312991.634 3882889.526 -9617643.397 10 0 60458 46800.00000 0 24316881.840 4057739.444 -6608422.327 10 0 60458 47700.00000 0 24965046.120 4062684.342 -3471041.344 10 0 60458 48600.00000 0 25228937.750 3946347.609 -266394.069 10 0 60458 49500.00000 0 25092511.650 3762109.886 2943420.872 10 0 60458 50400.00000 0 24552902.859 3565610.560 6096296.324 10 0 60458 51300.00000 0 23620574.177 3412164.568 9131306.268 10 0 60458 52200.00000 0 22318928.869 3354203.057 11989866.638 10 0 60458 53100.00000 0 20683406.160 3438844.713 14616846.225 10 0 60458 54000.00000 0 18760098.211 3705698.543 16961608.014 10 0 60458 54900.00000 0 16603946.314 4184988.855 18978962.975 10 0 60458 55800.00000 0 14276590.713 4896079.719 20630020.030 10 0 60458 56700.00000 0 11843961.951 5846459.704 21882917.957 10 0 60458 57600.00000 0 9373711.630 7031229.017 22713427.041 10 0 60458 58500.00000 0 6932586.664 8433110.904 23105410.270 10 0 60458 59400.00000 0 4583853.142 10022988.134 23051136.139 10 0 60458 60300.00000 0 2384873.984 11760944.320 22551437.192 10 0 60458 61200.00000 0 384938.561 13597769.432 21615710.722 10 0 60458 62100.00000 0 -1376567.335 15476869.962 20261760.370 10 0 60458 63000.00000 0 -2871576.134 17336507.462 18515479.763 10 0 60458 63900.00000 0 -4084279.006 19112275.139 16410381.937 10 0 60458 64800.00000 0 -5011552.516 20739711.702 13986980.996 10 0 60458 65700.00000 0 -5662852.398 22156944.936 11292035.206 10 0 60458 66600.00000 0 -6059577.330 23307255.094 8377663.735 10 0 60458 67500.00000 0 -6233927.752 24141450.302 5300352.058 10 0 60458 68400.00000 0 -6227306.267 24619952.918 2119863.850 10 0 60458 69300.00000 0 -6088326.040 24714506.846 -1101920.153 10 0 60458 70200.00000 0 -5870510.994 24409431.156 -4302213.653 10 0 60458 71100.00000 0 -5629785.562 23702364.035 -7418562.213 10 0 60458 72000.00000 0 -5421861.631 22604462.684 -10390080.887 10 0 60458 72900.00000 0 -5299635.505 21140048.049 -13158665.871 10 0 60458 73800.00000 0 -5310707.890 19345707.389 -15670154.191 10 0 60458 74700.00000 0 -5495134.998 17268891.296 -17875406.292 10 0 60458 75600.00000 0 -5883509.120 14966063.983 -19731288.109 10 0 60458 76500.00000 0 -6495452.680 12500485.124 -21201531.465 10 0 60458 77400.00000 0 -7338591.793 9939717.668 -22257454.483 10 0 60458 78300.00000 0 -8408054.278 7352967.780 -22878527.003 10 0 60458 79200.00000 0 -9686514.162 4808370.062 -23052769.680 10 0 60458 80100.00000 0 -11144780.832 2370333.240 -22776979.175 10 0 60458 81000.00000 0 -12742907.332 97058.343 -22056775.878 10 0 60458 81900.00000 0 -14431769.999 -1961666.621 -20906474.410 10 0 60458 82800.00000 0 -16155051.376 -3766303.854 -19348781.006 10 0 60458 83700.00000 0 -17851541.444 -5288959.545 -17414325.407 10 0 60458 84600.00000 0 -19457658.906 -6514278.344 -15141038.250 10 0 60458 85500.00000 0 -20910085.400 -7439804.134 -12573387.951 99